Weather History for Grosse Ile, MI

Change the Weather History Date:

Tuesday, October 1, 2013

  Actual Average (KDTW) Record (KDTW)
Temperature  
Mean Temperature 65 °F 58 °F  
Max Temperature 73 °F 68 °F 88 °F (1897)
Min Temperature 57 °F 48 °F 31 °F (1947)
Degree Days  
Heating Degree Days 0 8  
Month to date heating degree days 8  
Since 1 July heating degree days 122  
Cooling Degree Days 0 1  
Month to date cooling degree days 1  
Year to date cooling degree days 796  
Growing Degree Days 15 (Base 50)    
Moisture  
Dew Point 59 °F    
Average Humidity 84    
Maximum Humidity 94    
Minimum Humidity 65    
Precipitation  
Precipitation 0.04 in 0.09 in 1.55 in (1945)
Month to date precipitation 0.09  
Year to date precipitation 25.79  
Snow  
Snow 0.00 in 0.00 in T in (1974)
Month to date snowfall 0.0  
Since 1 July snowfall 0.0  
Since 1 September snowfall 0.0  
Snow Depth -    
Sea Level Pressure  
Sea Level Pressure 29.98 in    
Wind  
Wind Speed 6 mph (SW)    
Max Wind Speed 16 mph    
Max Gust Speed 22 mph    
Visibility 8 miles    
Events Fog    
T = Trace of Precipitation, MM = Missing Value Source: NWS Daily Summary

Daily Weather History Graph

Daily Weather History Graph

Search for Another Location

Airport:

Trip Planner

Search our weather history database for the weather conditions in past years. The results will help you decide how hot, cold, wet, or windy it might be!

Date:

Astronomy

Oct. 01, 2013 Rise Set
Actual Time 7:29 AM EDT 7:13 PM EDT
Civil Twilight 7:02 AM EDT 7:41 PM EDT
Nautical Twilight 6:29 AM EDT 8:14 PM EDT
Astronomical Twilight 5:56 AM EDT 8:46 PM EDT
Moon 4:00 AM EDT (10/1) 5:19 PM EDT (10/1)
Length of Visible Light 12h 39m
Length of Day
11h 43m
Waning Crescent, 12% of the Moon is Illuminated
Oct 1
Waning Crescent
Oct 4
New
Oct 11
First Quarter
Oct 18
Full
Oct 26
Last Quarter

Hourly Weather History & Observations

Time (EDT) Temp. Dew Point Humidity Pressure Visibility Wind Dir Wind Speed Gust Speed Precip Events Conditions
12:14 AM 64.4 °F 60.8 °F 88% 29.96 in 10.0 mi South 6.9 mph - N/A   Clear
12:34 AM 64.4 °F 62.6 °F 94% 29.96 in 7.0 mi South 6.9 mph - N/A   Clear
12:53 AM 64.4 °F 62.6 °F 94% 29.96 in 4.0 mi South 9.2 mph - N/A   Clear
1:14 AM 64.4 °F 62.6 °F 94% 29.96 in 7.0 mi SSW 8.1 mph - N/A   Scattered Clouds
1:34 AM 64.4 °F 60.8 °F 88% 29.96 in 7.0 mi SSW 6.9 mph - N/A   Clear
1:54 AM 62.6 °F 60.8 °F 94% 29.96 in 7.0 mi SSW 5.8 mph - N/A   Clear
2:14 AM 62.6 °F 59.0 °F 88% 29.96 in 10.0 mi SW 4.6 mph - N/A   Clear
2:34 AM 62.6 °F 57.2 °F 82% 29.97 in 10.0 mi SW 3.5 mph - N/A   Clear
2:54 AM 62.6 °F 57.2 °F 82% 29.97 in 10.0 mi WSW 3.5 mph - N/A   Clear
3:14 AM 60.8 °F 55.4 °F 82% 29.97 in 10.0 mi Calm Calm - N/A   Clear
3:34 AM 60.8 °F 55.4 °F 82% 29.97 in 10.0 mi Calm Calm - N/A   Clear
3:54 AM 60.8 °F 55.4 °F 82% 29.97 in 10.0 mi Calm Calm - N/A   Clear
4:14 AM 60.8 °F 55.4 °F 82% 29.98 in 10.0 mi Calm Calm - N/A   Clear
4:34 AM 59.0 °F 55.4 °F 88% 29.98 in 10.0 mi SSW 3.5 mph - N/A   Clear
4:54 AM 59.0 °F 55.4 °F 88% 29.98 in 10.0 mi WSW 3.5 mph - N/A   Clear
5:14 AM 59.0 °F 55.4 °F 88% 29.99 in 10.0 mi SW 3.5 mph - N/A   Clear
5:34 AM 59.0 °F 55.4 °F 88% 29.99 in 7.0 mi SW 4.6 mph - N/A   Clear
5:54 AM 57.2 °F 55.4 °F 94% 29.99 in 7.0 mi SW 4.6 mph - N/A   Clear
6:14 AM 57.2 °F 53.6 °F 88% 29.99 in 7.0 mi SW 3.5 mph - N/A   Clear
6:33 AM 57.2 °F 53.6 °F 88% 30.00 in 5.0 mi SW 3.5 mph - N/A   Clear
6:54 AM 57.2 °F 55.4 °F 94% 30.00 in 5.0 mi Calm Calm - N/A   Clear
7:14 AM 57.2 °F 53.6 °F 88% 30.01 in 4.0 mi Calm Calm - N/A   Clear
7:33 AM 57.2 °F 53.6 °F 88% 30.01 in 3.0 mi WSW 3.5 mph - N/A   Clear
7:54 AM 57.2 °F 55.4 °F 94% 30.02 in 2.0 mi Calm Calm - N/A   Clear
8:14 AM 57.2 °F 55.4 °F 94% 30.02 in 2.0 mi SW 4.6 mph - N/A   Clear
8:34 AM 59.0 °F 55.4 °F 88% 30.02 in 2.0 mi South 3.5 mph - N/A   Clear
8:54 AM 60.8 °F 57.2 °F 88% 30.02 in 2.0 mi SSW 4.6 mph - N/A   Mostly Cloudy
9:14 AM 60.8 °F 57.2 °F 88% 30.03 in 1.2 mi SW 4.6 mph - N/A   Overcast
9:34 AM 59.0 °F 57.2 °F 94% 30.03 in 0.2 mi SSW 4.6 mph - N/A Fog Fog
9:54 AM 60.8 °F 57.2 °F 88% 30.03 in 0.5 mi WSW 4.6 mph - N/A Fog Fog
10:14 AM 60.8 °F 57.2 °F 88% 30.03 in 0.5 mi SW 8.1 mph - N/A Fog Fog
10:34 AM 60.8 °F 59.0 °F 94% 30.03 in 1.2 mi SW 9.2 mph - N/A   Overcast
10:54 AM 60.8 °F 59.0 °F 94% 30.03 in 2.0 mi WSW 6.9 mph - N/A   Overcast
11:14 AM 62.6 °F 60.8 °F 94% 30.03 in 4.0 mi SW 6.9 mph - 0.04 in   Overcast
11:34 AM 62.6 °F 60.8 °F 94% 30.02 in 5.0 mi SW 6.9 mph - 0.04 in   Overcast
11:54 AM 64.4 °F 60.8 °F 88% 30.02 in 7.0 mi WSW 8.1 mph - 0.04 in   Overcast
12:13 PM 64.4 °F 60.8 °F 88% 30.02 in 7.0 mi WSW 8.1 mph - N/A   Overcast
12:34 PM 64.4 °F 60.8 °F 88% 30.01 in 7.0 mi SSW 8.1 mph - N/A   Overcast
12:54 PM 66.2 °F 60.8 °F 83% 30.01 in 7.0 mi SW 9.2 mph - N/A   Overcast
1:14 PM 66.2 °F 60.8 °F 83% 30.00 in 10.0 mi SW 9.2 mph - N/A   Overcast
1:34 PM 68.0 °F 62.6 °F 83% 30.00 in 10.0 mi SSW 12.7 mph 16.1 mph N/A   Overcast
1:54 PM 69.8 °F 60.8 °F 73% 29.99 in 10.0 mi SSW 11.5 mph - N/A   Overcast
2:14 PM 69.8 °F 60.8 °F 73% 29.98 in 10.0 mi SW 6.9 mph - N/A   Overcast
2:34 PM 71.6 °F 60.8 °F 69% 29.98 in 10.0 mi SW 12.7 mph 17.3 mph N/A   Mostly Cloudy
2:54 PM 71.6 °F 60.8 °F 69% 29.98 in 10.0 mi SW 9.2 mph 18.4 mph N/A   Mostly Cloudy
3:14 PM 71.6 °F 62.6 °F 73% 29.97 in 10.0 mi SW 9.2 mph - N/A   Mostly Cloudy
3:34 PM 73.4 °F 62.6 °F 69% 29.96 in 10.0 mi WSW 11.5 mph - N/A   Scattered Clouds
3:54 PM 73.4 °F 62.6 °F 69% 29.96 in 10.0 mi WSW 12.7 mph 17.3 mph N/A   Mostly Cloudy
4:14 PM 73.4 °F 62.6 °F 69% 29.95 in 10.0 mi WSW 10.4 mph - N/A   Mostly Cloudy
4:34 PM 73.4 °F 60.8 °F 65% 29.96 in 10.0 mi WSW 12.7 mph 16.1 mph N/A   Mostly Cloudy
4:54 PM 73.4 °F 60.8 °F 65% 29.95 in 10.0 mi WSW 10.4 mph 19.6 mph N/A   Scattered Clouds
5:14 PM 73.4 °F 60.8 °F 65% 29.95 in 10.0 mi WSW 11.5 mph 19.6 mph N/A   Clear
5:34 PM 73.4 °F 60.8 °F 65% 29.95 in 10.0 mi WSW 16.1 mph 21.9 mph N/A   Clear
5:54 PM 71.6 °F 60.8 °F 69% 29.95 in 10.0 mi WSW 9.2 mph 18.4 mph N/A   Clear
6:14 PM 71.6 °F 60.8 °F 69% 29.95 in 10.0 mi SW 8.1 mph 17.3 mph N/A   Clear
6:34 PM 69.8 °F 60.8 °F 73% 29.95 in 10.0 mi WSW 8.1 mph - N/A   Clear
6:54 PM 69.8 °F 60.8 °F 73% 29.94 in 10.0 mi WSW 6.9 mph - N/A   Clear
7:14 PM 68.0 °F 60.8 °F 78% 29.95 in 10.0 mi WSW 4.6 mph - N/A   Clear
7:34 PM 66.2 °F 60.8 °F 83% 29.95 in 10.0 mi WSW 3.5 mph - N/A   Clear
7:54 PM 66.2 °F 60.8 °F 83% 29.95 in 10.0 mi Calm Calm - N/A   Clear
8:14 PM 66.2 °F 60.8 °F 83% 29.95 in 10.0 mi SW 3.5 mph - N/A   Clear
8:33 PM 66.2 °F 60.8 °F 83% 29.95 in 10.0 mi Calm Calm - N/A   Clear
8:54 PM 64.4 °F 60.8 °F 88% 29.96 in 10.0 mi Calm Calm - N/A   Clear
9:14 PM 64.4 °F 60.8 °F 88% 29.96 in 10.0 mi Calm Calm - N/A   Clear
9:33 PM 64.4 °F 60.8 °F 88% 29.96 in 10.0 mi SSW 4.6 mph - N/A   Clear
9:54 PM 66.2 °F 60.8 °F 83% 29.96 in 10.0 mi SSW 3.5 mph - N/A   Clear
10:14 PM 64.4 °F 60.8 °F 88% 29.97 in 10.0 mi SSW 4.6 mph - N/A   Clear
10:34 PM 66.2 °F 60.8 °F 83% 29.97 in 10.0 mi SSW 5.8 mph - N/A   Clear
10:54 PM 64.4 °F 60.8 °F 88% 29.96 in 10.0 mi SSW 5.8 mph - N/A   Clear
11:14 PM 66.2 °F 60.8 °F 83% 29.97 in 10.0 mi SSW 4.6 mph - N/A   Clear
11:34 PM 66.2 °F 60.8 °F 83% 29.96 in 10.0 mi SSW 4.6 mph - N/A   Clear
11:54 PM 64.4 °F 60.8 °F 88% 29.96 in 10.0 mi SW 5.8 mph - N/A   Clear